SNEZKA Weather Reports


time (UTC)temp
C
wind
direction
speed
KPH
gust
KPH
rain 1hr
cm
rain 24hr
cm
rain mn
cm
humidity
%
barometer
mb
20260905201958 5 270 86.9 103.0 0.00 0.00 0.00 99
20260905192220 5 240 72.4 95.0 0.00 0.00 0.00 99
20260905182306 6 250 75.6 95.0 0.00 0.00 0.00 86
20260905172026 7 250 61.2 78.9 0.00 0.00 0.00 75
20260905162402 7 250 49.9 75.6 0.00 0.00 0.00 81
20260905152156 7 240 41.8 96.6 0.00 0.00 0.00 81
20260905142255 7 230 38.6 72.4 0.00 0.00 0.00 81
20260905132158 7 240 32.2 57.9 0.00 0.00 0.00 81
20260905121700 7 230 57.9 83.7 0.00 0.00 0.00 81
20260905112011 6 230 32.2 72.4 0.00 0.00 0.00 93
20260905102440 6 250 49.9 69.2 0.00 0.00 0.00 86
20260905092208 5 240 57.9 78.9 0.00 0.00 0.00 99
20260905082004 5 250 83.7 99.8 0.00 0.00 0.00 93
20260905072306 5 260 61.2 83.7 0.00 0.00 0.00 99
20260905062010 3 250 78.9 0.0 0.00 0.00 0.00 99
20260905052002 5 250 75.6 96.6 0.00 0.00 0.00 99
20260905042411 6 260 86.9 122.3 0.00 0.00 0.00 99
20260905032011 5 270 111.0 140.0 0.00 0.00 0.00 99
20260905022003 7 270 103.0 122.3 0.00 0.00 0.00 70
20260905012306 6 280 99.8 122.3 0.00 0.00 0.00 86
20260905002028 7 270 96.6 114.3 0.00 0.00 0.00 99
20260904232048 7 260 61.2 78.9 0.00 0.00 0.00 99
20260904222417 8 240 53.1 78.9 0.00 0.00 0.00 99
20260904212031 10 270 53.1 72.4 0.00 0.00 0.00 99